| time (UTC) | temp F | wind direction | speed MPH | gust MPH | rain 1hr in | rain 24hr in | rain mn in | humidity % | barometer mb |
| 20260906120029 | 65 | 305 | 0.0 | 1.0 | 0.00 | 0.00 | 0.00 | 95 | 1020.1 |
| 20260906115025 | 65 | 305 | 0.0 | 1.0 | 0.00 | 0.00 | 0.00 | 95 | 1020.0 |
| 20260906114022 | 65 | 307 | 0.0 | 1.0 | 0.00 | 0.00 | 0.00 | 94 | 1019.9 |
| 20260906113039 | 65 | 225 | 0.0 | 1.0 | 0.00 | 0.00 | 0.00 | 95 | 1019.7 |
| 20260906112034 | 65 | 279 | 0.0 | 1.0 | 0.00 | 0.00 | 0.00 | 95 | 1019.6 |
| 20260906111032 | 65 | 250 | 0.0 | 1.0 | 0.00 | 0.00 | 0.00 | 95 | 1019.6 |
| 20260906110026 | 65 | 256 | 0.0 | 1.0 | 0.00 | 0.00 | 0.00 | 95 | 1019.5 |
| 20260906105041 | 65 | 233 | 0.0 | 2.0 | 0.00 | 0.00 | 0.00 | 95 | 1019.5 |
| 20260906104017 | 65 | 265 | 0.0 | 1.0 | 0.00 | 0.00 | 0.00 | 95 | 1019.4 |
| 20260906103034 | 65 | 233 | 0.0 | 1.0 | 0.00 | 0.00 | 0.00 | 96 | 1019.3 |
| 20260906102030 | 65 | 249 | 0.0 | 1.0 | 0.00 | 0.00 | 0.00 | 96 | 1019.4 |
| 20260906101026 | 66 | 272 | 0.0 | 1.0 | 0.00 | 0.00 | 0.00 | 96 | 1019.4 |
| 20260906100044 | 66 | 221 | 0.0 | 2.0 | 0.00 | 0.00 | 0.00 | 97 | 1019.4 |
| 20260906095020 | 66 | 266 | 0.0 | 2.0 | 0.00 | 0.00 | 0.00 | 99 | 1019.3 |
| 20260906094016 | 65 | 256 | 1.0 | 2.0 | 0.00 | 0.00 | 0.00 | 99 | 1019.1 |
| 20260906093033 | 65 | 214 | 0.0 | 2.0 | 0.00 | 0.00 | 0.00 | 99 | 1019.1 |
| 20260906092030 | 64 | 236 | 0.0 | 2.0 | 0.00 | 0.00 | 0.00 | 99 | 1019.1 |
| 20260906091027 | 63 | 0.0 | 0.0 | 0.00 | 0.00 | 0.00 | 99 | 1019.0 | |
| 20260906090024 | 63 | 226 | 0.0 | 1.0 | 0.00 | 0.00 | 0.00 | 99 | 1019.1 |
| 20260906085020 | 64 | 0.0 | 0.0 | 0.00 | 0.00 | 0.00 | 99 | 1019.1 | |
| 20260906084038 | 64 | 0.0 | 0.0 | 0.00 | 0.00 | 0.00 | 99 | 1019.2 | |
| 20260906083034 | 65 | 324 | 0.0 | 1.0 | 0.00 | 0.00 | 0.00 | 98 | 1019.1 |
| 20260906082030 | 66 | 332 | 0.0 | 2.0 | 0.00 | 0.00 | 0.00 | 99 | 1019.1 |
| 20260906081027 | 66 | 339 | 1.0 | 3.0 | 0.00 | 0.00 | 0.00 | 99 | 1019.0 |
| 20260906080024 | 66 | 340 | 0.0 | 2.0 | 0.00 | 0.00 | 0.00 | 99 | 1018.9 |
| 20260906075041 | 65 | 338 | 1.0 | 2.0 | 0.00 | 0.00 | 0.00 | 99 | 1018.8 |
| 20260906074019 | 65 | 338 | 1.0 | 3.0 | 0.00 | 0.00 | 0.00 | 99 | 1018.6 |
| 20260906073035 | 65 | 335 | 2.0 | 4.0 | 0.00 | 0.00 | 0.00 | 99 | 1018.5 |
| 20260906072031 | 65 | 335 | 1.0 | 3.0 | 0.00 | 0.00 | 0.00 | 99 | 1018.4 |
| 20260906071028 | 66 | 342 | 2.0 | 4.0 | 0.00 | 0.00 | 0.00 | 99 | 1018.5 |
| 20260906070025 | 66 | 356 | 1.0 | 3.0 | 0.00 | 0.00 | 0.00 | 99 | 1018.5 |
| 20260906065022 | 66 | 347 | 2.0 | 3.0 | 0.00 | 0.00 | 0.00 | 99 | 1018.5 |
| 20260906064018 | 66 | 354 | 1.0 | 3.0 | 0.00 | 0.00 | 0.00 | 99 | 1018.4 |
| 20260906063035 | 65 | 352 | 1.0 | 4.0 | 0.00 | 0.00 | 0.00 | 99 | 1018.4 |
| 20260906062032 | 65 | 351 | 1.0 | 3.0 | 0.00 | 0.00 | 0.00 | 99 | 1018.4 |
| 20260906061029 | 65 | 355 | 1.0 | 3.0 | 0.00 | 0.00 | 0.00 | 99 | 1018.4 |
| 20260906060027 | 65 | 4 | 1.0 | 3.0 | 0.00 | 0.00 | 0.00 | 98 | 1018.3 |
| 20260906055022 | 66 | 351 | 1.0 | 4.0 | 0.00 | 0.00 | 0.00 | 98 | 1018.3 |
| 20260906054019 | 66 | 344 | 2.0 | 6.0 | 0.00 | 0.00 | 0.00 | 97 | 1018.1 |
| 20260906053016 | 66 | 349 | 2.0 | 9.0 | 0.00 | 0.00 | 0.00 | 97 | 1018.1 |
| 20260906052033 | 66 | 348 | 3.0 | 6.0 | 0.00 | 0.00 | 0.00 | 96 | 1018.2 |
| 20260906051031 | 66 | 345 | 3.0 | 7.0 | 0.00 | 0.00 | 0.00 | 96 | 1018.1 |
| 20260906050024 | 66 | 344 | 2.0 | 6.0 | 0.00 | 0.00 | 0.00 | 96 | 1018.3 |
| 20260906045020 | 66 | 344 | 2.0 | 7.0 | 0.00 | 0.00 | 0.00 | 96 | 1018.2 |
| 20260906044016 | 66 | 340 | 2.0 | 7.0 | 0.00 | 0.00 | 0.00 | 96 | 1018.2 |
| 20260906043033 | 66 | 340 | 3.0 | 7.0 | 0.00 | 0.00 | 0.00 | 96 | 1018.1 |
| 20260906042030 | 66 | 345 | 3.0 | 8.0 | 0.00 | 0.00 | 0.00 | 96 | 1018.1 |
| 20260906041046 | 66 | 338 | 2.0 | 7.0 | 0.00 | 0.00 | 0.00 | 96 | 1018.0 |
| 20260906040023 | 66 | 346 | 2.0 | 6.0 | 0.00 | 0.00 | 0.00 | 95 | 1018.0 |
| 20260906035020 | 67 | 341 | 2.0 | 7.0 | 0.00 | 0.00 | 0.00 | 95 | 1018.0 |
| 20260906034017 | 67 | 344 | 2.0 | 6.0 | 0.00 | 0.00 | 0.00 | 95 | 1017.9 |
| 20260906033053 | 67 | 346 | 3.0 | 6.0 | 0.00 | 0.00 | 0.00 | 95 | 1017.9 |
| 20260906032030 | 67 | 348 | 2.0 | 6.0 | 0.00 | 0.00 | 0.00 | 94 | 1017.9 |
| 20260906031027 | 67 | 347 | 2.0 | 7.0 | 0.00 | 0.00 | 0.00 | 94 | 1017.9 |
| 20260906030024 | 67 | 344 | 3.0 | 6.0 | 0.00 | 0.00 | 0.00 | 93 | 1017.9 |
| 20260906025020 | 67 | 344 | 2.0 | 8.0 | 0.00 | 0.00 | 0.00 | 92 | 1018.0 |
| 20260906024018 | 67 | 335 | 2.0 | 9.0 | 0.00 | 0.00 | 0.00 | 92 | 1017.9 |
| 20260906023034 | 67 | 336 | 3.0 | 7.0 | 0.00 | 0.00 | 0.00 | 92 | 1017.9 |
| 20260906022031 | 67 | 343 | 2.0 | 6.0 | 0.00 | 0.00 | 0.00 | 92 | 1017.9 |
| 20260906021028 | 67 | 346 | 3.0 | 8.0 | 0.00 | 0.00 | 0.00 | 93 | 1018.0 |
| 20260906020025 | 67 | 343 | 3.0 | 8.0 | 0.00 | 0.00 | 0.00 | 94 | 1017.9 |
| 20260906015022 | 67 | 337 | 3.0 | 8.0 | 0.00 | 0.00 | 0.00 | 96 | 1017.8 |
| 20260906014018 | 67 | 338 | 2.0 | 7.0 | 0.00 | 0.00 | 0.00 | 96 | 1017.6 |
| 20260906013035 | 67 | 339 | 2.0 | 7.0 | 0.00 | 0.00 | 0.00 | 96 | 1017.5 |
| 20260906012033 | 67 | 346 | 2.0 | 8.0 | 0.00 | 0.00 | 0.00 | 96 | 1017.6 |
| 20260906011048 | 67 | 342 | 3.0 | 8.0 | 0.00 | 0.00 | 0.00 | 96 | 1017.6 |
| 20260906010025 | 67 | 341 | 3.0 | 8.0 | 0.00 | 0.00 | 0.00 | 96 | 1017.4 |
| 20260906005022 | 67 | 349 | 3.0 | 8.0 | 0.00 | 0.00 | 0.00 | 97 | 1017.4 |
| 20260906004018 | 67 | 350 | 3.0 | 8.0 | 0.00 | 0.00 | 0.00 | 97 | 1017.4 |
| 20260906003055 | 67 | 340 | 3.0 | 9.0 | 0.00 | 0.00 | 0.00 | 96 | 1017.4 |
| 20260906002032 | 67 | 351 | 2.0 | 9.0 | 0.00 | 0.00 | 0.00 | 95 | 1017.4 |
| 20260906001029 | 68 | 344 | 2.0 | 8.0 | 0.00 | 0.00 | 0.00 | 94 | 1017.4 |
| 20260906000027 | 68 | 346 | 2.0 | 6.0 | 0.00 | 0.00 | 0.00 | 92 | 1017.5 |
| 20260905235022 | 69 | 355 | 3.0 | 11.0 | 0.00 | 0.00 | 0.00 | 91 | 1017.6 |
| 20260905234019 | 69 | 353 | 4.0 | 8.0 | 0.00 | 0.00 | 0.00 | 89 | 1017.5 |
| 20260905233036 | 70 | 357 | 4.0 | 10.0 | 0.00 | 0.00 | 0.00 | 86 | 1017.5 |
| 20260905232053 | 71 | 350 | 2.0 | 7.0 | 0.00 | 0.00 | 0.00 | 83 | 1017.6 |
| 20260905231030 | 72 | 4 | 3.0 | 8.0 | 0.00 | 0.00 | 0.00 | 82 | 1017.4 |
| 20260905230028 | 72 | 349 | 3.0 | 9.0 | 0.00 | 0.00 | 0.00 | 81 | 1017.3 |
| 20260905225023 | 73 | 348 | 3.0 | 8.0 | 0.00 | 0.00 | 0.00 | 81 | 1017.3 |
| 20260905224021 | 73 | 22 | 2.0 | 9.0 | 0.00 | 0.00 | 0.00 | 82 | 1017.3 |
| 20260905223017 | 72 | 354 | 4.0 | 10.0 | 0.00 | 0.00 | 0.00 | 83 | 1017.3 |
| 20260905222033 | 70 | 352 | 3.0 | 7.0 | 0.00 | 0.00 | 0.00 | 86 | 1017.3 |
| 20260905221030 | 71 | 343 | 4.0 | 9.0 | 0.00 | 0.00 | 0.00 | 85 | 1017.3 |
| 20260905220029 | 72 | 346 | 4.0 | 9.0 | 0.00 | 0.00 | 0.00 | 83 | 1017.4 |
| 20260905215044 | 71 | 2 | 3.0 | 9.0 | 0.00 | 0.00 | 0.00 | 85 | 1017.4 |
| 20260905214021 | 71 | 0 | 3.0 | 9.0 | 0.00 | 0.00 | 0.00 | 86 | 1017.4 |
| 20260905213017 | 71 | 348 | 3.0 | 9.0 | 0.00 | 0.00 | 0.00 | 87 | 1017.3 |
| 20260905212057 | 71 | 358 | 3.0 | 8.0 | 0.00 | 0.00 | 0.00 | 87 | 1017.3 |
| 20260905211052 | 71 | 3 | 3.0 | 8.0 | 0.00 | 0.00 | 0.00 | 88 | 1017.3 |
| 20260905210049 | 71 | 350 | 3.0 | 8.0 | 0.00 | 0.00 | 0.00 | 88 | 1017.3 |
| 20260905205026 | 71 | 350 | 4.0 | 9.0 | 0.00 | 0.00 | 0.00 | 87 | 1017.3 |
| 20260905204021 | 71 | 16 | 4.0 | 13.0 | 0.00 | 0.00 | 0.00 | 88 | 1017.3 |
| 20260905203018 | 70 | 343 | 4.0 | 11.0 | 0.00 | 0.00 | 0.00 | 90 | 1017.3 |
| 20260905202035 | 70 | 1 | 4.0 | 10.0 | 0.00 | 0.00 | 0.00 | 91 | 1017.3 |
| 20260905201033 | 70 | 345 | 3.0 | 8.0 | 0.00 | 0.00 | 0.00 | 92 | 1017.3 |
| 20260905200029 | 70 | 356 | 3.0 | 7.0 | 0.00 | 0.00 | 0.00 | 92 | 1017.3 |
| 20260905195025 | 70 | 343 | 2.0 | 7.0 | 0.00 | 0.00 | 0.00 | 93 | 1017.3 |
| 20260905194022 | 70 | 4 | 3.0 | 7.0 | 0.00 | 0.00 | 0.00 | 91 | 1017.3 |
| 20260905193018 | 70 | 358 | 3.0 | 8.0 | 0.00 | 0.00 | 0.00 | 91 | 1017.3 |
| 20260905192015 | 71 | 356 | 3.0 | 7.0 | 0.00 | 0.00 | 0.00 | 91 | 1017.3 |
| 20260905191032 | 71 | 356 | 2.0 | 7.0 | 0.00 | 0.00 | 0.00 | 92 | 1017.3 |
| 20260905190029 | 70 | 4 | 2.0 | 6.0 | 0.00 | 0.00 | 0.00 | 93 | 1017.4 |
| 20260905185026 | 70 | 7 | 2.0 | 6.0 | 0.00 | 0.00 | 0.00 | 94 | 1017.6 |
| 20260905184024 | 70 | 3 | 2.0 | 6.0 | 0.00 | 0.00 | 0.00 | 93 | 1017.5 |
| 20260905183020 | 71 | 356 | 3.0 | 7.0 | 0.00 | 0.00 | 0.00 | 92 | 1017.4 |
| 20260905182036 | 70 | 360 | 2.0 | 8.0 | 0.00 | 0.00 | 0.00 | 93 | 1017.4 |
| 20260905181033 | 70 | 342 | 4.0 | 8.0 | 0.00 | 0.00 | 0.00 | 93 | 1017.4 |
| 20260905180030 | 70 | 352 | 3.0 | 8.0 | 0.00 | 0.00 | 0.00 | 94 | 1017.3 |
| 20260905175027 | 70 | 351 | 3.0 | 8.0 | 0.00 | 0.00 | 0.00 | 94 | 1017.3 |
| 20260905174044 | 70 | 5 | 3.0 | 7.0 | 0.00 | 0.00 | 0.00 | 96 | 1017.2 |
| 20260905173020 | 69 | 8 | 3.0 | 7.0 | 0.00 | 0.00 | 0.00 | 96 | 1017.3 |
| 20260905172018 | 69 | 355 | 3.0 | 7.0 | 0.00 | 0.00 | 0.00 | 96 | 1017.3 |
| 20260905171034 | 69 | 357 | 4.0 | 9.0 | 0.00 | 0.00 | 0.00 | 95 | 1017.3 |
| 20260905170030 | 70 | 9 | 2.0 | 6.0 | 0.00 | 0.00 | 0.00 | 94 | 1017.3 |
| 20260905165048 | 70 | 354 | 2.0 | 6.0 | 0.00 | 0.00 | 0.00 | 94 | 1017.4 |
| 20260905164024 | 71 | 32 | 1.0 | 4.0 | 0.00 | 0.00 | 0.00 | 94 | 1017.4 |
| 20260905163022 | 71 | 32 | 1.0 | 3.0 | 0.00 | 0.00 | 0.00 | 95 | 1017.3 |
| 20260905162017 | 70 | 34 | 1.0 | 3.0 | 0.00 | 0.00 | 0.00 | 95 | 1017.2 |
| 20260905161033 | 70 | 26 | 1.0 | 4.0 | 0.00 | 0.00 | 0.00 | 97 | 1017.1 |
| 20260905160030 | 69 | 32 | 2.0 | 4.0 | 0.00 | 0.00 | 0.00 | 97 | 1017.1 |
| 20260905155047 | 70 | 358 | 2.0 | 6.0 | 0.00 | 0.00 | 0.00 | 96 | 1017.0 |
| 20260905154023 | 70 | 40 | 2.0 | 6.0 | 0.00 | 0.00 | 0.00 | 97 | 1016.9 |
| 20260905153020 | 70 | 11 | 2.0 | 7.0 | 0.00 | 0.00 | 0.00 | 98 | 1016.7 |
| 20260905152017 | 69 | 12 | 2.0 | 8.0 | 0.00 | 0.00 | 0.00 | 98 | 1016.6 |
| 20260905151034 | 70 | 35 | 2.0 | 6.0 | 0.00 | 0.00 | 0.00 | 98 | 1016.5 |
| 20260905150032 | 70 | 20 | 2.0 | 8.0 | 0.00 | 0.00 | 0.00 | 98 | 1016.3 |
| 20260905145027 | 70 | 33 | 2.0 | 8.0 | 0.00 | 0.00 | 0.00 | 99 | 1016.1 |
| 20260905144044 | 70 | 10 | 2.0 | 7.0 | 0.00 | 0.00 | 0.00 | 99 | 1015.9 |
| 20260905143020 | 69 | 359 | 2.0 | 7.0 | 0.00 | 0.00 | 0.00 | 99 | 1015.9 |
| 20260905142017 | 70 | 345 | 4.0 | 13.0 | 0.00 | 0.01 | 0.00 | 99 | 1015.9 |
| 20260905141035 | 70 | 348 | 4.0 | 11.0 | 0.00 | 0.01 | 0.00 | 99 | 1015.9 |
| 20260905140032 | 70 | 354 | 3.0 | 9.0 | 0.00 | 0.01 | 0.00 | 99 | 1016.0 |
| 20260905135027 | 69 | 342 | 4.0 | 11.0 | 0.00 | 0.01 | 0.00 | 99 | 1016.2 |
| 20260905134024 | 69 | 349 | 4.0 | 11.0 | 0.00 | 0.01 | 0.00 | 99 | 1016.3 |
| 20260905133021 | 69 | 352 | 4.0 | 9.0 | 0.00 | 0.02 | 0.00 | 99 | 1016.1 |
| 20260905132018 | 69 | 345 | 4.0 | 10.0 | 0.00 | 0.07 | 0.00 | 99 | 1015.7 |
| 20260905131035 | 69 | 345 | 4.0 | 10.0 | 0.00 | 0.10 | 0.00 | 99 | 1015.6 |
| 20260905130031 | 69 | 344 | 4.0 | 9.0 | 0.00 | 0.17 | 0.00 | 99 | 1015.6 |
| 20260905125028 | 69 | 353 | 4.0 | 10.0 | 0.00 | 0.17 | 0.00 | 99 | 1015.5 |
| 20260905124025 | 69 | 346 | 3.0 | 11.0 | 0.00 | 0.18 | 0.00 | 99 | 1015.4 |
| 20260905123042 | 69 | 347 | 3.0 | 10.0 | 0.00 | 0.18 | 0.00 | 99 | 1015.3 |
| 20260905122018 | 69 | 348 | 3.0 | 10.0 | 0.00 | 0.18 | 0.00 | 99 | 1015.2 |
| 20260905121056 | 69 | 348 | 4.0 | 8.0 | 0.00 | 0.23 | 0.00 | 99 | 1015.2 |